North Wilkesboro, NC

7:50 AM EST on November 19, 2019 (GMT -0500)
Wilkes County

Weather History for KUKF - October, 2019

Change the Weather History Date:

Wednesday, October 23, 2019

  Actual Average Record
Temperature  
Mean Temperature 54 °F -  
Max Temperature 66 °F 69 °F 80 °F (1975)
Min Temperature 41 °F 37 °F 22 °F (1974)
Degree Days  
Heating Degree Days 12    
Growing Degree Days 4 (Base 50)    
Moisture  
Dew Point 35 °F    
Average Humidity 55    
Maximum Humidity 100    
Minimum Humidity 24    
Precipitation  
Precipitation 0.00 in - - ()
Sea Level Pressure  
Sea Level Pressure 30.19 in    
Wind  
Wind Speed 3 mph (NW)    
Max Wind Speed 8 mph    
Max Gust Speed -    
Visibility 10 miles    
Events      
Averages and records for this station are not official NWS values.
T = Trace of Precipitation, MM = Missing Value Source: NWS Daily Summary

Daily Weather History Graph

Daily Weather History Graph

Search for Another Location

Airport or City:

Astronomy

Oct. 23, 2019 Rise Set
Actual Time 7:38 AM EDT 6:38 PM EDT
Civil Twilight 7:12 AM EDT 7:04 PM EDT
Nautical Twilight 6:42 AM EDT 7:34 PM EDT
Astronomical Twilight 6:12 AM EDT 8:04 PM EDT
Moon 2:08 AM EDT (10/23) 4:16 PM EDT (10/23)
Length of Visible Light 11h 52m
Length of Day
11h 00m
Waning Crescent, 27% of the Moon is Illuminated
Oct 23
Waning Crescent
Oct 27
New
Nov 4
First Quarter
Nov 12
Full
Nov 19
Last Quarter

Hourly Weather History & Observations

Time (EDT) Temp. Windchill Dew Point Humidity Pressure Visibility Wind Dir Wind Speed Gust Speed Precip Events Conditions
12:15 AM 46.4 °F 45.2 °F 44.6 °F 93% 30.03 in 10.0 mi West 3.5 mph - N/A   Clear
12:35 AM 46.4 °F 45.2 °F 44.6 °F 93% 30.03 in 10.0 mi West 3.5 mph - N/A   Clear
1:35 AM 44.6 °F - 44.6 °F 100% 30.03 in 10.0 mi Calm Calm - N/A   Clear
1:55 AM 46.4 °F - 42.8 °F 87% 30.04 in 10.0 mi Calm Calm - N/A   Clear
2:55 AM 50.0 °F - 39.2 °F 66% 30.05 in 10.0 mi Calm Calm - N/A   Clear
3:35 AM 48.2 °F - 37.4 °F 66% 30.05 in 10.0 mi West 3.5 mph - N/A   Clear
3:55 AM 48.2 °F - 37.4 °F 66% 30.05 in 10.0 mi WNW 3.5 mph - N/A   Clear
4:15 AM 48.2 °F - 37.4 °F 66% 30.05 in 10.0 mi West 3.5 mph - N/A   Clear
4:35 AM 48.2 °F - 37.4 °F 66% 30.07 in 10.0 mi West 4.6 mph - N/A   Clear
9:15 AM 51.8 °F - 35.6 °F 54% 30.19 in 10.0 mi North 3.5 mph - N/A   Clear
9:35 AM 53.6 °F - 35.6 °F 51% 30.19 in 10.0 mi Calm Calm - N/A   Clear
9:55 AM 53.6 °F - 35.6 °F 51% 30.20 in 10.0 mi NW 3.5 mph - N/A   Clear
10:15 AM 53.6 °F - 33.8 °F 47% 30.20 in 10.0 mi Calm Calm - N/A   Clear
10:35 AM 55.4 °F - 33.8 °F 44% 30.22 in 10.0 mi NW 3.5 mph - N/A   Scattered Clouds
10:55 AM 55.4 °F - 33.8 °F 44% 30.21 in 10.0 mi NW 6.9 mph - N/A   Clear
11:15 AM 57.2 °F - 33.8 °F 41% 30.22 in 10.0 mi NW 5.8 mph - N/A   Clear
11:35 AM 59.0 °F - 33.8 °F 39% 30.22 in 10.0 mi WNW 5.8 mph - N/A   Clear
12:35 PM 60.8 °F - 32.0 °F 34% 30.21 in 10.0 mi Calm Calm - N/A   Clear
12:55 PM 60.8 °F - 32.0 °F 34% 30.20 in 10.0 mi Calm Calm - N/A   Clear
1:15 PM 62.6 °F - 32.0 °F 32% 30.19 in 10.0 mi Calm Calm - N/A   Clear
1:35 PM 62.6 °F - 32.0 °F 32% 30.19 in 10.0 mi West 8.1 mph - N/A   Clear
1:55 PM 62.6 °F - 30.2 °F 30% 30.19 in 10.0 mi West 3.5 mph - N/A   Clear
2:15 PM 64.4 °F - 28.4 °F 26% 30.18 in 10.0 mi Calm Calm - N/A   Clear
2:35 PM 64.4 °F - 28.4 °F 26% 30.19 in 10.0 mi NNW 4.6 mph - N/A   Clear
2:55 PM 64.4 °F - 28.4 °F 26% 30.19 in 10.0 mi Calm Calm - N/A   Clear
3:15 PM 64.4 °F - 26.6 °F 24% 30.18 in 10.0 mi NW 5.8 mph - N/A   Clear
3:35 PM 64.4 °F - 28.4 °F 26% 30.19 in 10.0 mi NW 4.6 mph - N/A   Clear
3:55 PM 66.2 °F - 28.4 °F 24% 30.19 in 10.0 mi NW 6.9 mph - N/A   Clear
4:15 PM 64.4 °F - 28.4 °F 26% 30.19 in 10.0 mi NNW 3.5 mph - N/A   Clear
4:35 PM 64.4 °F - 30.2 °F 28% 30.19 in 10.0 mi WNW 5.8 mph - N/A   Clear
4:55 PM 64.4 °F - 30.2 °F 28% 30.20 in 10.0 mi WNW 3.5 mph - N/A   Clear
5:15 PM 64.4 °F - 32.0 °F 30% 30.20 in 10.0 mi NW 5.8 mph - N/A   Clear
5:35 PM 64.4 °F - 32.0 °F 30% 30.20 in 10.0 mi Calm Calm - N/A   Clear
5:55 PM 62.6 °F - 33.8 °F 34% 30.21 in 10.0 mi Calm Calm - N/A   Clear
6:15 PM 60.8 °F - 35.6 °F 39% 30.22 in 10.0 mi NNW 3.5 mph - N/A   Clear
6:35 PM 55.4 °F - 33.8 °F 44% 30.22 in 10.0 mi Calm Calm - N/A   Clear
6:55 PM 53.6 °F - 35.6 °F 51% 30.23 in 10.0 mi Calm Calm - N/A   Clear
7:15 PM 51.8 °F - 35.6 °F 54% 30.23 in 10.0 mi North 3.5 mph - N/A   Clear
7:35 PM 51.8 °F - 33.8 °F 50% 30.24 in 10.0 mi North 4.6 mph - N/A   Clear
7:55 PM 50.0 °F - 37.4 °F 62% 30.25 in 10.0 mi Calm Calm - N/A   Clear
8:15 PM 48.2 °F - 37.4 °F 66% 30.26 in 10.0 mi Calm Calm - N/A   Clear
8:35 PM 46.4 °F - 41.0 °F 81% 30.26 in 10.0 mi Calm Calm - N/A   Clear
8:55 PM 44.6 °F - 41.0 °F 87% 30.27 in 10.0 mi Calm Calm - N/A   Clear
9:15 PM 44.6 °F - 41.0 °F 87% 30.27 in 10.0 mi Calm Calm - N/A   Clear
9:35 PM 46.4 °F 45.2 °F 39.2 °F 76% 30.27 in 10.0 mi NNW 3.5 mph - N/A   Clear
9:55 PM 44.6 °F - 37.4 °F 76% 30.28 in 10.0 mi Calm Calm - N/A   Clear
10:15 PM 44.6 °F - 37.4 °F 76% 30.29 in 10.0 mi Calm Calm - N/A   Clear
10:35 PM 42.8 °F - 41.0 °F 93% 30.30 in 10.0 mi Calm Calm - N/A   Clear
10:55 PM 41.0 °F - 41.0 °F 100% 30.30 in 10.0 mi Calm Calm - N/A   Clear
11:15 PM 41.0 °F - 41.0 °F 100% 30.30 in 10.0 mi Calm Calm - N/A   Clear
11:35 PM 41.0 °F - 41.0 °F 100% 30.31 in 10.0 mi Calm Calm - N/A   Clear